Location: Ostrava
(49.8330°N, 18.2830°E)
Time: 14:20:08
(UTC+02:00)

Cosmos 1400 Rocket - Visible Passes

Search period start: 24 September 2017 00:00
Search period end: 04 October 2017 00:00
Orbit: 524 x 569 km, 81.2° (Epoch: 23 September)

Date Brightness Start Highest point End Pass type
(mag) Time Alt. Az. Time Alt. Az. Time Alt. Az.
24 Sep 5.0 21:57:10 10° N 21:58:47 23° N 21:58:47 23° N visible
25 Sep 4.9 21:51:42 10° N 21:53:26 24° N 21:53:26 24° N visible
26 Sep 5.2 20:11:58 10° NE 20:12:27 11° NE 20:12:27 11° NE visible
26 Sep 4.8 21:46:14 10° N 21:48:06 26° N 21:48:06 26° N visible
27 Sep 5.1 20:06:14 10° NE 20:07:07 11° NE 20:07:07 11° NE visible
27 Sep 4.7 21:40:47 10° NNW 21:42:45 27° NNW 21:42:45 27° NNW visible
28 Sep 5.0 20:00:33 10° NNE 20:01:49 12° NE 20:01:49 12° NE visible
28 Sep 4.6 21:35:19 10° NNW 21:37:27 29° NNW 21:37:27 29° NNW visible
29 Sep 4.9 19:54:54 10° NNE 19:56:32 13° NE 19:56:32 13° NE visible
29 Sep 4.5 21:29:52 10° NNW 21:32:10 32° NNW 21:32:10 32° NNW visible
30 Sep 4.8 19:49:17 10° NNE 19:51:16 14° ENE 19:51:16 14° ENE visible
30 Sep 4.3 21:24:25 10° NNW 21:26:55 35° NNW 21:26:55 35° NNW visible
01 Oct 4.7 19:43:41 10° NNE 19:46:01 15° ENE 19:46:01 15° ENE visible
01 Oct 4.2 21:18:58 10° NNW 21:21:41 38° NNW 21:21:41 38° NNW visible
02 Oct 4.6 19:38:07 10° NNE 19:40:42 16° ENE 19:40:49 16° ENE visible
02 Oct 4.0 21:13:31 10° NNW 21:16:28 42° NW 21:16:28 42° NW visible
03 Oct 4.5 19:32:32 10° NNE 19:35:15 17° ENE 19:35:39 16° ENE visible
03 Oct 3.8 21:08:05 10° NNW 21:11:18 46° NW 21:11:18 46° NW visible
